Regional Weather Roundup
Issued by NWS

Current Version | Previous Version | Text Only | Print | Product List | Glossary On
Versions: 1 2 3 4 5 6 7 8 9 10 11 12 13 14 15 16 17 18 19 20 21 22 23 24 25 26 27 28 29 30 31 32 33 34 35 36 37 38 39 40 41 42 43 44 45 46 47 48 49 50
000
ASUS44 KBMX 301510
RWRAL

ALABAMA REGIONAL WEATHER ROUNDUP
NATIONAL WEATHER SERVICE BIRMINGHAM AL
1000 AM CDT MON MAY 30 2016

NOTE: "FAIR" INDICATES FEW OR NO CLOUDS BELOW 12,000 FEET
WITH NO SIGNIFICANT WEATHER AND/OR OBSTRUCTIONS TO VISIBILITY.

THE REMARK "TC" DENOTES TEMPERATURE IN DEGREES CELSIUS.

ALZ001>011-014-016>018-020-301600-
NORTH ALABAMA

CITY           SKY/WX    TMP DP  RH WIND       PRES   REMARKS
MUSCLE SHOALS  SUNNY     84  67  56 CALM      30.06F
HUNTSVILLE     MOSUNNY   85  66  53 N5        30.05F
DECATUR        SUNNY     82  68  62 CALM      30.06F
HALEYVILLE     FAIR      83  68  60 VRB5      30.08F
GADSDEN        MOSUNNY   84  68  58 N7        30.06F
$$

ALZ012-013-022-023-030>036-040>044-301600-
WEST CENTRAL ALABAMA

CITY           SKY/WX    TMP DP  RH WIND       PRES   REMARKS
TUSCALOOSA     SUNNY     85  68  56 VRB3      30.04F
$$

ALZ015-024>027-033>036-040>044-301600-
CENTRAL ALABAMA

CITY           SKY/WX    TMP DP  RH WIND       PRES   REMARKS
BIRMINGHAM     PTSUNNY   85  66  53 NE7       30.08F
MONTGOMERY     SUNNY     88  66  48 N3        30.03S HX  90
SHELBY CO ARPT SUNNY     85  65  51 VRB3      30.05F
MAXWELL AFB    NOT AVBL
GREENVILLE     FAIR      88  66  48 N9        30.03F HX  90
$$

ALZ019-021-028-029-037-038-045>048-301600-
EAST CENTRAL ALABAMA

CITY           SKY/WX    TMP DP  RH WIND       PRES   REMARKS
ANNISTON       MOSUNNY   85  65  51 N5        30.05F
ALEXANDER CITY SUNNY     85  73  67 NE3       30.06S HX  92
AUBURN         SUNNY    N/A N/A N/A N7        30.06S
$$

ALZ051>064-301600-
SOUTHWEST ALABAMA

CITY           SKY/WX    TMP DP  RH WIND       PRES   REMARKS
MOBILE         PTSUNNY   87  70  56 NE3       30.04F HX  92
BROOKLEY FIELD SUNNY     85  73  67 NE6       30.04F HX  91
EVERGREEN      SUNNY     87  68  52 VRB6      30.04F HX  90
$$

ALZ049-050-065>069-301600-
SOUTHEAST ALABAMA

CITY           SKY/WX    TMP DP  RH WIND       PRES   REMARKS
DOTHAN         SUNNY     87  66  49 N7        30.06F
OZARK          NOT AVBL
TROY           SUNNY     88  69  53 N5        30.04S HX  92
EUFAULA        FAIR      87  67  51 VRB6      30.01F HX  90
$$



USA.gov is the U.S. government's official web portal to all federal, state and local government web resources and services.